Weather History for KBAB - February, 2014

Change the Weather History Date:

Tuesday, February 25, 2014

  Actual Average Record
Temperature  
Mean Temperature 58 °F -  
Max Temperature 71 °F 59 °F 73 °F (1997)
Min Temperature 44 °F 42 °F 33 °F (2011)
Degree Days  
Heating Degree Days 8    
Growing Degree Days 8 (Base 50)    
Moisture  
Dew Point 43 °F    
Average Humidity 61    
Maximum Humidity 90    
Minimum Humidity 36    
Precipitation  
Precipitation 0.00 in - - ()
Sea Level Pressure  
Sea Level Pressure 30.12 in    
Wind  
Wind Speed 4 mph (SSE)    
Max Wind Speed 10 mph    
Max Gust Speed -    
Visibility 9 miles    
Events      
Averages and records for this station are not official NWS values.
T = Trace of Precipitation, MM = Missing Value Source: NWS Daily Summary

Daily Weather History Graph

Daily Weather History Graph

Search for Another Location

Airport or City:

Trip Planner

Search our weather history database for the weather conditions in past years. The results will help you decide how hot, cold, wet, or windy it might be!

Date:

Astronomy

Feb. 25, 2014 Rise Set
Actual Time 6:43 AM PST 5:54 PM PST
Civil Twilight 6:16 AM PST 6:21 PM PST
Nautical Twilight 5:45 AM PST 6:52 PM PST
Astronomical Twilight 5:15 AM PST 7:23 PM PST
Moon 3:42 AM PST (2/25) 2:06 PM PST (2/25)
Length of Visible Light 12h 04m
Length of Day
11h 10m
Waning Crescent, 17% of the Moon is Illuminated
Feb 25
Waning Crescent
Mar 1
New
Mar 8
First Quarter
Mar 16
Full
Mar 23
Last Quarter

Hourly Weather History & Observations

Time (PST) Temp. Windchill Dew Point Humidity Pressure Visibility Wind Dir Wind Speed Gust Speed Precip Events Conditions
12:58 AM 52.3 °F - 42.4 °F 69% 30.17 in 10.0 mi East 2.3 mph - N/A   Clear
1:58 AM 45.7 °F 44.4 °F 42.4 °F 88% 30.17 in 10.0 mi ESE 3.5 mph - N/A   Clear
2:58 AM 49.8 °F - 40.8 °F 71% 30.16 in 10.0 mi East 4.6 mph - N/A   Clear
3:58 AM 48.9 °F - 39.7 °F 71% 30.15 in 10.0 mi Calm Calm - N/A   Clear
4:58 AM 45.0 °F 43.5 °F 40.1 °F 83% 30.15 in 10.0 mi West 3.5 mph - N/A   Clear
5:58 AM 44.8 °F 43.3 °F 41.7 °F 89% 30.16 in 10.0 mi NW 3.5 mph - N/A   Clear
6:58 AM 44.2 °F - 41.4 °F 90% 30.16 in 10.0 mi North 1.2 mph - N/A   Clear
7:58 AM 48.9 °F - 45.9 °F 89% 30.18 in 10.0 mi NW 2.3 mph - N/A   Clear
8:58 AM 55.0 °F - 44.1 °F 67% 30.19 in 10.0 mi NNE 2.3 mph - N/A   Clear
9:48 AM 62.6 °F - 41.0 °F 45% 29.95 in 2.5 mi SSE 4.6 mph - N/A   Haze
9:58 AM 62.4 °F - 41.4 °F 46% 30.18 in 10.0 mi South 4.6 mph - N/A   Clear
10:28 AM 64.4 °F - 42.8 °F 45% 29.95 in 10.0 mi SW 5.8 mph - N/A   Clear
10:58 AM 64.4 °F - 43.3 °F 46% 30.18 in 10.0 mi SW 4.6 mph - N/A   Clear
11:43 AM 68.0 °F - 41.0 °F 37% 29.94 in 2.5 mi SSW 4.6 mph - N/A   Haze
11:58 AM 68.0 °F - 43.0 °F 40% 30.17 in 10.0 mi Variable 4.6 mph - N/A   Clear
12:58 PM 70.5 °F - 42.8 °F 37% 30.15 in 10.0 mi SW 8.1 mph - N/A   Clear
1:58 PM 70.9 °F - 45.1 °F 40% 30.12 in 10.0 mi SSW 5.8 mph - N/A   Clear
2:58 PM 71.6 °F - 43.5 °F 36% 30.09 in 10.0 mi SSW 2.3 mph - N/A   Clear
3:58 PM 70.7 °F - 45.3 °F 40% 30.09 in 10.0 mi SSW 4.6 mph - N/A   Clear
4:58 PM 70.3 °F - 46.6 °F 43% 30.09 in 10.0 mi South 5.8 mph - N/A   Clear
5:58 PM 63.0 °F - 48.2 °F 59% 30.09 in 10.0 mi SSE 5.8 mph - N/A   Partly Cloudy
6:58 PM 59.4 °F - 48.6 °F 67% 30.11 in 10.0 mi ESE 8.1 mph - N/A   Partly Cloudy
7:58 PM 58.5 °F - 46.4 °F 64% 30.11 in 10.0 mi ESE 10.4 mph - N/A   Clear
8:58 PM 57.9 °F - 43.0 °F 58% 30.12 in 10.0 mi ESE 8.1 mph - N/A   Clear
9:58 PM 49.8 °F - 44.4 °F 82% 30.13 in 10.0 mi SSE 4.6 mph - N/A   Clear
10:58 PM 50.7 °F - 44.4 °F 79% 30.13 in 10.0 mi ESE 6.9 mph - N/A   Clear
11:58 PM 52.7 °F - 43.9 °F 72% 30.12 in 10.0 mi ESE 5.8 mph - N/A   Mostly Cloudy